Flag for Switzerland Weather past 2 weeks in Liestal, Basel-Land, Switzerland

Now
66 °F

Clear.


Feels Like: 66 °F
Forecast: 56 / 87 °F
Wind: 5 mph from South

Location: Bale-Mulhouse

Current Time: Aug 4, 2015 at 3:32:53 AM

Latest Report: Aug 4, 2015 at 3:00 AM


Visibility: 10 mi

Pressure: 29.95 "Hg

Humidity: 78%

Dew point: 59 °F

Location of LiestalLocation

Historic Weather in Liestal — Graph

°F

Liestal temperature yesterday

Maximum temperature yesterday: 93 °F (at 5:30 PM)
Minimum temperature yesterday: 57 °F (at 3:00 AM)
Average temperature yesterday: 75 °F

Past Weeks' High & Low Weather Summary

 TemperatureHumidityPressure
High93 °F (Jul 21, 5:00 PM)100% (Jul 26, 5:00 AM)30.12 "Hg (Jul 26, 5:00 AM)
Low46 °F (Jul 26, 6:00 AM)26% (Jul 21, 7:30 PM)29.71 "Hg (Jul 24, 5:30 PM)
Average69 °F66%29.96 "Hg
* Reported Jul 20 2:00 AM — Aug 4 2:30 AM, Liestal, Weather by CustomWeather, © 2015

Note: Actual official high and low records may vary slightly from our data, if they occured in-between our weather recording intervals... More about our weather records

Advertising

Liestal weather history for previous 24 hours

 ConditionsComfort  
Time TempWeatherWind HumidityBarometerVisibility
2:30 AM
Tue, Aug 4
68 °FClear.5 mph73%29.98 "Hg10 mi
2:00 AM68 °FClear.6 mph73%29.95 "Hg10 mi
1:30 AM68 °FClear.7 mph73%29.98 "Hg10 mi
1:00 AM66 °FClear.5 mph83%29.98 "Hg10 mi
12:30 AM66 °FClear.5 mph83%29.98 "Hg10 mi
11:30 PM
Mon, Aug 3
68 °FClear.2 mph83%29.95 "Hg10 mi
10:30 PM70 °FClear.2 mph83%29.95 "Hg10 mi
10:00 PM72 °FSunny.2 mph78%29.95 "Hg10 mi
9:30 PM75 °FSunny.2 mph65%29.95 "Hg10 mi
9:00 PM84 °FSunny.2 mph45%29.95 "Hg10 mi
8:30 PM86 °FSunny.1 mph46%29.95 "Hg10 mi
8:00 PM88 °FSunny.2 mph35%29.98 "Hg10 mi
7:30 PM90 °FSunny.3 mph31%29.98 "Hg10 mi
7:00 PM91 °FSunny.3 mph30%29.98 "Hg10 mi
6:30 PM91 °FPassing clouds.3 mph32%29.98 "HgN/A
6:00 PM91 °FSunny.3 mph30%29.98 "Hg10 mi
5:30 PM93 °FPassing clouds.3 mph28%29.98 "HgN/A
5:00 PM91 °FSunny.3 mph30%30.01 "Hg10 mi
4:30 PM91 °FPassing clouds.5 mph28%30.01 "HgN/A
4:00 PM91 °FPassing clouds.6 mph28%30.01 "HgN/A
3:30 PM91 °FPassing clouds.6 mph30%30.01 "HgN/A
3:00 PM90 °FPassing clouds.6 mph31%30.04 "HgN/A
2:30 PM88 °FSunny.3 mph35%30.04 "Hg10 mi
2:00 PM88 °FSunny.5 mph35%30.04 "Hg10 mi
1:30 PM86 °FSunny.6 mph38%30.04 "Hg10 mi
1:00 PM86 °FSunny.5 mph40%30.04 "Hg10 mi
12:30 PM84 °FSunny.2 mph45%30.07 "Hg10 mi
11:30 AM82 °FSunny.3 mph45%30.07 "Hg10 mi
11:00 AM81 °FPassing clouds.3 mph48%30.07 "HgN/A
10:30 AM77 °FPassing clouds.5 mph51%30.07 "HgN/A
10:00 AM75 °FSunny.7 mph54%30.07 "Hg10 mi
9:30 AM73 °FPassing clouds.6 mph61%30.07 "HgN/A
9:00 AM72 °FPassing clouds.6 mph61%30.07 "HgN/A
8:30 AM68 °FPassing clouds.6 mph69%30.07 "HgN/A
8:00 AM64 °FPassing clouds.6 mph78%30.07 "HgN/A
7:30 AM63 °FPassing clouds.5 mph83%30.07 "HgN/A
7:00 AM61 °FClear.6 mph88%30.04 "Hg10 mi
6:30 AM59 °FClear.6 mph88%30.04 "Hg10 mi
5:30 AM59 °FClear.6 mph88%30.04 "Hg10 mi
5:00 AM57 °FClear.3 mph94%30.04 "Hg10 mi
4:30 AM57 °FClear.3 mph94%30.04 "Hg10 mi
4:00 AM57 °FClear.3 mph94%30.04 "Hg10 mi
3:30 AM59 °FClear.3 mph88%30.04 "Hg10 mi
3:00 AM57 °FClear.3 mph94%30.04 "Hg10 mi
Weather by CustomWeather, © 2015

See weather overviewHow to use our weather pages